Buckhannon, WV

1:08 PM EST on January 19, 2018 (GMT -0500)
Buckhannon

Weather History for KW22 - April, 2014

Change the Weather History Date:

Friday, April 4, 2014

  Actual Average (KCKB) Record (KCKB)
Temperature  
Mean Temperature 62 °F -  
Max Temperature 73 °F 61 °F 85 °F (1940)
Min Temperature 48 °F 35 °F 17 °F (1943)
Degree Days  
Heating Degree Days 4    
Growing Degree Days 12 (Base 50)    
Moisture  
Dew Point 53 °F    
Average Humidity 75    
Maximum Humidity 100    
Minimum Humidity 50    
Precipitation  
Precipitation 0.23 in - - ()
Sea Level Pressure  
Sea Level Pressure 29.74 in    
Wind  
Wind Speed 10 mph (SSW)    
Max Wind Speed 26 mph    
Max Gust Speed 45 mph    
Visibility 10 miles    
Events Rain    
Averages and records for this station are not official NWS values.
T = Trace of Precipitation, MM = Missing Value Source: NWS Daily Summary

Daily Weather History Graph

Daily Weather History Graph

Search for Another Location

Airport or City:

Trip Planner

Search our weather history database for the weather conditions in past years. The results will help you decide how hot, cold, wet, or windy it might be!

Date:

Astronomy

Apr. 04, 2014 Rise Set
Actual Time 7:01 AM EDT 7:47 PM EDT
Civil Twilight 6:34 AM EDT 8:14 PM EDT
Nautical Twilight 6:02 AM EDT 8:46 PM EDT
Astronomical Twilight 5:29 AM EDT 9:19 PM EDT
Moon 10:18 AM EDT (4/4) 12:03 AM EDT (4/4)
Length of Visible Light 13h 40m
Length of Day
12h 46m
Waxing Crescent, 25% of the Moon is Illuminated
Apr 4
Waxing Crescent
Apr 7
First Quarter
Apr 15
Full
Apr 22
Last Quarter
Apr 29
New

Hourly Weather History & Observations

Time (EDT) Temp. Dew Point Humidity Pressure Visibility Wind Dir Wind Speed Gust Speed Precip Events Conditions
12:15 AM 60.8 °F 57.2 °F 88% 29.88 in 10.0 mi SW 11.5 mph - N/A   Overcast
12:55 AM 59.0 °F 59.0 °F 100% 29.85 in 10.0 mi South 10.4 mph - N/A   Mostly Cloudy
1:15 AM 59.0 °F 57.2 °F 94% 29.84 in 10.0 mi South 10.4 mph - N/A   Mostly Cloudy
1:35 AM 60.8 °F 55.4 °F 82% 29.83 in 10.0 mi SSW 9.2 mph - N/A   Scattered Clouds
1:55 AM 60.8 °F 55.4 °F 82% 29.82 in 10.0 mi South 6.9 mph - N/A   Clear
2:15 AM 59.0 °F 55.4 °F 88% 29.81 in 10.0 mi South 5.8 mph - N/A   Clear
2:35 AM 59.0 °F 55.4 °F 88% 29.81 in 10.0 mi Calm Calm - N/A   Clear
2:55 AM 59.0 °F 55.4 °F 88% 29.81 in 10.0 mi Calm Calm - N/A   Clear
3:15 AM 60.8 °F 55.4 °F 82% 29.80 in 10.0 mi Calm Calm - N/A   Clear
3:35 AM 59.0 °F 55.4 °F 88% 29.81 in 10.0 mi Calm Calm - N/A   Clear
3:55 AM 57.2 °F 57.2 °F 100% 29.80 in 10.0 mi Calm Calm - N/A   Clear
4:15 AM 57.2 °F 55.4 °F 94% 29.80 in 10.0 mi Calm Calm - N/A   Clear
4:35 AM 55.4 °F 55.4 °F 100% 29.80 in 10.0 mi Calm Calm - N/A   Clear
4:55 AM 55.4 °F 55.4 °F 100% 29.80 in 10.0 mi South 4.6 mph - N/A   Clear
5:15 AM 53.6 °F 53.6 °F 100% 29.80 in 10.0 mi South 3.5 mph - N/A   Partly Cloudy
5:35 AM 53.6 °F 53.6 °F 100% 29.80 in 10.0 mi South 4.6 mph - N/A   Mostly Cloudy
5:55 AM 57.2 °F 55.4 °F 94% 29.80 in 10.0 mi Calm Calm - N/A   Mostly Cloudy
6:15 AM 55.4 °F 55.4 °F 100% 29.79 in 10.0 mi Calm Calm - N/A   Mostly Cloudy
6:35 AM 57.2 °F 55.4 °F 94% 29.79 in 10.0 mi SSE 5.8 mph - N/A   Overcast
6:55 AM 59.0 °F 55.4 °F 88% 29.77 in 10.0 mi SE 6.9 mph - N/A   Mostly Cloudy
7:15 AM 57.2 °F 53.6 °F 88% 29.77 in 10.0 mi SE 6.9 mph - N/A   Mostly Cloudy
7:35 AM 60.8 °F 53.6 °F 77% 29.77 in 10.0 mi SE 4.6 mph - N/A   Scattered Clouds
7:55 AM 60.8 °F 53.6 °F 77% 29.76 in 10.0 mi SSE 5.8 mph - N/A   Mostly Cloudy
8:15 AM 60.8 °F 53.6 °F 77% 29.76 in 10.0 mi SSE 4.6 mph - N/A   Mostly Cloudy
8:35 AM 62.6 °F 53.6 °F 72% 29.74 in 10.0 mi SSE 5.8 mph - N/A   Scattered Clouds
8:55 AM 64.4 °F 55.4 °F 73% 29.72 in 10.0 mi SSE 6.9 mph - N/A   Clear
9:15 AM 64.4 °F 55.4 °F 73% 29.71 in 10.0 mi South 5.8 mph - N/A   Clear
9:35 AM 66.2 °F 55.4 °F 68% 29.70 in 10.0 mi South 8.1 mph - N/A   Clear
9:55 AM 68.0 °F 55.4 °F 64% 29.70 in 10.0 mi South 6.9 mph - N/A   Clear
10:15 AM 69.8 °F 55.4 °F 60% 29.70 in 10.0 mi South 11.5 mph - N/A   Clear
10:35 AM 71.6 °F 53.6 °F 53% 29.68 in 10.0 mi South 17.3 mph - N/A   Clear
10:55 AM 71.6 °F 53.6 °F 53% 29.67 in 10.0 mi SSW 11.5 mph 18.4 mph N/A   Clear
11:15 AM 73.4 °F 53.6 °F 50% 29.65 in 10.0 mi South 20.7 mph 25.3 mph N/A   Clear
11:35 AM 73.4 °F 53.6 °F 50% 29.64 in 10.0 mi South 13.8 mph 21.9 mph N/A   Clear
12:15 PM 62.6 °F 60.8 °F 94% 29.70 in 1.0 mi SW 12.7 mph 44.9 mph 0.21 in Rain Rain
12:35 PM 60.8 °F 60.8 °F 100% 29.69 in 5.0 mi South 10.4 mph - 0.23 in Rain Light Rain
12:55 PM 60.8 °F 60.8 °F 100% 29.68 in 9.0 mi South 10.4 mph - 0.23 in   Scattered Clouds
1:15 PM 62.6 °F 60.8 °F 94% 29.68 in 5.0 mi SSW 19.6 mph 27.6 mph N/A   Overcast
1:35 PM 60.8 °F 60.8 °F 100% 29.68 in 1.5 mi SSW 16.1 mph 27.6 mph N/A   Overcast
2:15 PM 62.6 °F 57.2 °F 82% 29.68 in 10.0 mi SSW 16.1 mph 20.7 mph N/A   Scattered Clouds
2:35 PM 62.6 °F 57.2 °F 82% 29.67 in 10.0 mi SSW 16.1 mph 28.8 mph N/A   Partly Cloudy
2:55 PM 64.4 °F 57.2 °F 77% 29.67 in 10.0 mi South 13.8 mph 20.7 mph N/A   Clear
3:15 PM 64.4 °F 55.4 °F 73% 29.66 in 10.0 mi SW 15.0 mph 23.0 mph N/A   Clear
3:35 PM 66.2 °F 53.6 °F 64% 29.66 in 10.0 mi SSW 21.9 mph 28.8 mph N/A   Clear
3:55 PM 66.2 °F 53.6 °F 64% 29.66 in 10.0 mi SW 16.1 mph 31.1 mph N/A   Clear
4:15 PM 66.2 °F 53.6 °F 64% 29.65 in 10.0 mi SSW 13.8 mph 23.0 mph N/A   Clear
4:35 PM 66.2 °F 51.8 °F 60% 29.66 in 10.0 mi SW 20.7 mph 33.4 mph N/A   Scattered Clouds
4:55 PM 66.2 °F 51.8 °F 60% 29.65 in 10.0 mi SW 17.3 mph 31.1 mph N/A   Scattered Clouds
5:15 PM 66.2 °F 51.8 °F 60% 29.66 in 10.0 mi SSW 20.7 mph 29.9 mph N/A   Mostly Cloudy
5:35 PM 66.2 °F 51.8 °F 60% 29.66 in 10.0 mi SW 13.8 mph 28.8 mph N/A   Mostly Cloudy
5:55 PM 66.2 °F 51.8 °F 60% 29.67 in 10.0 mi SW 18.4 mph 27.6 mph N/A   Mostly Cloudy
6:15 PM 64.4 °F 51.8 °F 64% 29.67 in 10.0 mi SW 23.0 mph 28.8 mph N/A   Scattered Clouds
6:35 PM 64.4 °F 48.2 °F 56% 29.68 in 10.0 mi SW 17.3 mph 33.4 mph N/A   Partly Cloudy
6:55 PM 64.4 °F 48.2 °F 56% 29.68 in 10.0 mi SW 26.5 mph 44.9 mph N/A   Clear
7:15 PM 64.4 °F 48.2 °F 56% 29.69 in 10.0 mi SW 20.7 mph 28.8 mph N/A   Clear
7:35 PM 62.6 °F 46.4 °F 55% 29.70 in 10.0 mi SW 19.6 mph 32.2 mph N/A   Clear
7:55 PM 62.6 °F 46.4 °F 55% 29.70 in 10.0 mi SW 15.0 mph 32.2 mph N/A   Clear
8:15 PM 62.6 °F 46.4 °F 55% 29.70 in 10.0 mi SW 18.4 mph 24.2 mph N/A   Clear
8:35 PM 62.6 °F 46.4 °F 55% 29.71 in 10.0 mi SW 15.0 mph 21.9 mph N/A   Clear
8:55 PM 62.6 °F 48.2 °F 59% 29.73 in 10.0 mi SW 11.5 mph 21.9 mph N/A   Scattered Clouds
9:15 PM 62.6 °F 48.2 °F 59% 29.75 in 10.0 mi WNW 9.2 mph 21.9 mph N/A   Overcast
9:35 PM 59.0 °F 48.2 °F 67% 29.76 in 10.0 mi West 15.0 mph 25.3 mph N/A   Scattered Clouds
9:55 PM 59.0 °F 48.2 °F 67% 29.78 in 10.0 mi West 12.7 mph 20.7 mph N/A   Scattered Clouds
10:15 PM 57.2 °F 46.4 °F 67% 29.78 in 10.0 mi WNW 17.3 mph 23.0 mph N/A   Mostly Cloudy
10:55 PM 55.4 °F 44.6 °F 67% 29.81 in 10.0 mi West 13.8 mph 20.7 mph N/A   Mostly Cloudy
11:15 PM 53.6 °F 42.8 °F 67% 29.83 in 10.0 mi WNW 19.6 mph 29.9 mph N/A   Partly Cloudy
11:35 PM 50.0 °F 41.0 °F 71% 29.85 in 10.0 mi West 18.4 mph 31.1 mph N/A   Partly Cloudy
11:55 PM 48.2 °F 39.2 °F 71% 29.87 in 10.0 mi West 16.1 mph 24.2 mph N/A   Scattered Clouds